Location: Cointrin
(46.2167°N, 6.1167°E)
Time: 19:35:46
(UTC+00:00)

COSMOS 2428 - Pass Details

Date: 08 February 2023
Orbit: 843 x 858 km, 70.9° (Epoch: 22 March)

Event Time Altitude Azimuth Distance (km) Brightness Sun altitude
Rises 17:24:37 0° 170° (S) 3,388 5.9 -6.5°
Reaches altitude 10° 17:27:24 10° 158° (SSE) 2,457 5.1 -6.9°
Maximum altitude 17:32:00 27° 103° (ESE) 1,587 3.7 -7.7°
Drops below altitude 10° 17:36:38 10° 48° (NE) 2,471 4.6 -8.5°
Enters shadow 17:38:23 - 40° (NE) 3,051 5.1 -8.8°
